Theta_e
337 339 344 346 350 354 354 358 358 356 353 344 345 345 342 337 335 333 332 329 327 328 327 327 325 327 321 320 320 318 316 315 310 312 315 316 315 314 315 316 314 314 313
345 342 341 342 346 354 355 357 354 354 351 347 346 345 342 338 336 333 330 328 327 326 325 326 324 322 323 321 317 319 317 317 312 312 313 312 313 314 314 313 312 314 313
342 344 345 344 344 353 355 356 352 349 349 347 347 347 342 339 335 333 332 330 328 327 326 325 324 322 317 315 316 317 315 313 314 311 309 310 311 311 312 313 314 316 312
335 341 344 345 346 347 351 351 350 350 349 349 350 346 344 341 337 334 332 331 330 328 327 325 324 319 316 315 316 316 314 311 312 309 307 307 308 311 310 310 309 311 311
331 334 343 345 346 346 348 346 348 347 348 348 348 347 345 340 339 336 334 331 329 330 327 325 321 317 317 317 311 313 312 310 308 306 306 306 306 306 308 308 309 311 312
327 330 335 344 344 343 343 345 347 344 345 345 346 344 340 338 321 319 330 333 331 328 325 322 319 317 313 311 311 311 311 312 312 306 306 305 309 309 309 309 311 307 307
326 328 331 337 340 341 341 341 344 346 343 342 341 341 339 338 313 313 317 332 330 327 322 318 315 313 311 308 308 308 307 308 309 315 309 309 310 311 311 310 312 310 307
323 326 328 329 331 338 342 337 342 343 339 337 338 339 337 337 310 311 312 332 329 321 319 317 310 312 307 304 304 305 305 308 310 309 313 313 314 314 314 314 315 312 312
319 323 326 327 329 331 334 339 337 338 338 335 335 335 334 333 308 306 315 324 319 317 313 312 310 308 301 301 301 302 304 308 306 305 305 303 302 301 305 310 308 307 308
318 321 324 327 329 329 332 337 339 335 332 333 332 333 327 329 305 306 316 318 315 313 310 307 305 302 299 300 303 304 305 307 307 308 310 303 304 306 300 311 311 307 308
320 322 322 325 328 330 333 338 335 331 331 329 328 328 328 319 308 306 309 314 309 304 306 303 302 299 298 299 302 306 309 310 306 307 307 307 309 311 309 311 313 310 307
322 322 323 324 325 326 330 330 337 331 327 325 324 321 316 312 308 306 307 309 307 307 304 304 301 298 297 297 300 301 300 303 307 307 306 306 307 307 309 312 314 313 314
321 322 322 323 323 327 325 327 330 330 325 321 317 315 314 315 312 305 305 305 305 309 307 304 299 296 296 296 297 298 299 307 306 306 305 306 307 309 313 313 314 315 316
319 321 322 320 321 323 320 316 326 324 321 318 316 316 314 310 310 309 310 307 304 308 305 302 299 300 299 298 300 303 306 306 306 306 306 308 309 311 310 309 309 310 309
319 320 322 320 322 321 319 307 304 320 318 318 317 315 308 306 307 307 307 308 307 305 304 302 300 299 298 298 303 305 306 306 306 307 307 308 308 308 307 309 308 309 307
317 318 320 319 318 318 317 314 299 296 300 301 301 310 311 304 301 300 301 300 299 299 302 301 300 300 296 300 302 304 305 305 306 307 307 308 307 307 307 308 308 307 307
316 318 321 317 320 315 314 311 310 305 295 295 297 300 300 299 297 297 296 296 296 299 303 301 299 298 298 300 303 304 305 306 310 307 307 308 308 308 306 307 307 307 306
318 308 320 319 319 318 313 311 307 304 303 302 297 299 295 295 295 294 294 296 297 301 301 300 298 298 299 301 304 305 306 307 307 307 307 308 308 308 307 306 307 307 306
320 321 322 321 320 312 311 308 307 306 303 301 298 295 293 294 294 293 296 302 302 302 302 301 300 300 300 305 306 308 309 307 307 307 308 308 308 308 307 307 307 295 299
321 307 307 317 317 312 308 307 306 303 302 301 301 296 296 295 296 298 302 303 303 303 303 302 302 302 305 307 308 308 307 306 307 308 308 308 309 309 308 307 307 306 306
315 315 297 312 313 312 308 307 307 304 302 301 297 296 290 300 299 302 302 302 302 303 302 303 304 307 309 307 307 308 306 306 307 308 308 309 309 308 309 308 308 308 307
314 312 311 310 310 308 307 307 305 303 301 298 296 293 288 301 301 302 302 302 302 303 304 304 304 308 309 307 307 306 306 306 307 308 309 309 309 308 308 308 307 307 307
311 310 308 305 305 300 305 305 304 303 299 296 296 296 299 300 302 302 301 301 301 302 304 305 305 307 310 311 310 308 306 307 308 309 309 309 308 307 308 307 307 306 306
307 305 306 306 305 305 304 302 299 295 298 296 297 297 298 298 298 298 300 301 302 303 304 305 305 306 309 312 312 311 307 308 310 310 310 309 307 305 308 307 307 307 307
306 305 305 306 304 304 302 302 302 300 299 299 299 299 299 299 299 300 301 302 302 303 304 305 307 308 308 309 308 308 301 291 305 301 310 310 309 309 308 307 307 307 308
306 306 305 304 303 304 302 302 301 302 301 302 301 301 301 301 301 301 302 303 303 304 305 306 308 308 308 308 308 299 289 289 300 289 308 309 308 308 308 308 307 307 307
Wind_Speed
10 13 16 17 18 18 18 18 19 18 20 21 22 22 22 20 18 15 14 15 17 15 13 13 12 11 8 8 7 6 7 6 7 7 7 8 6 5 2 3 5 5 8
10 10 14 16 17 16 17 17 18 20 20 22 22 22 22 21 19 18 19 19 19 17 15 14 14 10 9 8 6 8 7 7 6 10 8 8 8 6 4 4 3 1 5
18 13 10 13 15 15 16 16 18 20 20 22 22 22 23 21 21 22 21 20 20 19 17 16 15 14 12 8 7 9 7 7 7 9 9 7 7 6 6 4 4 1 7
18 17 13 11 13 15 14 15 17 19 20 21 21 21 21 21 22 22 20 19 19 19 19 18 17 15 14 10 11 9 9 7 7 8 8 8 7 6 4 4 6 4 3
19 18 15 13 10 12 14 15 16 17 18 20 21 20 20 19 17 23 22 21 20 19 19 18 14 17 16 12 7 7 7 8 9 9 10 8 7 7 7 4 3 3 4
19 18 18 14 9 9 12 13 16 17 18 18 19 21 21 15 19 23 19 17 17 17 16 15 15 17 15 14 13 11 9 8 9 9 8 8 8 6 5 3 1 3 2
19 18 18 19 13 8 10 12 15 18 16 18 19 20 21 21 22 23 18 16 16 17 17 15 15 12 15 12 13 10 6 1 5 6 8 9 10 7 5 4 1 3 4
18 19 17 17 16 15 10 13 15 14 15 16 18 21 20 19 24 23 20 17 16 15 15 16 15 17 14 13 10 7 7 8 6 7 8 7 8 7 6 3 1 4 8
16 17 17 18 17 16 14 14 13 13 14 16 15 18 20 17 24 25 26 17 17 15 15 18 16 17 19 17 11 8 9 10 9 8 10 12 10 7 2 5 7 7 2
16 16 16 17 18 18 16 14 13 13 14 13 14 17 19 16 26 31 27 11 14 12 12 11 24 20 25 21 14 12 11 15 13 12 9 6 6 7 4 7 4 5 3
16 15 15 15 16 16 15 15 11 13 13 13 14 14 17 16 23 35 37 18 18 18 16 13 13 30 28 25 18 14 16 12 14 14 11 10 10 10 9 8 6 6 5
17 16 15 14 11 14 15 15 15 13 13 12 12 9 10 16 29 35 36 32 29 22 20 19 19 32 29 23 19 13 12 16 13 12 11 11 10 9 9 8 6 5 3
17 17 16 14 13 11 15 16 14 11 11 11 11 11 11 12 13 33 33 29 29 17 15 20 33 30 27 20 20 14 16 14 13 12 11 11 10 9 8 8 6 7 8
18 18 15 14 12 10 8 9 13 7 10 10 11 12 10 9 10 13 15 12 22 17 24 20 29 21 19 16 14 12 14 14 12 12 11 10 9 9 8 8 8 8 7
17 16 15 11 11 8 6 3 6 7 7 12 13 12 13 12 14 22 23 18 16 17 20 17 16 16 15 12 14 14 13 13 13 11 11 11 10 9 9 7 6 6 6
16 13 12 9 11 7 6 4 1 10 2 6 4 8 10 8 18 25 26 23 26 34 18 18 17 17 17 15 16 14 15 15 13 12 11 11 11 10 9 8 7 6 6
15 15 11 12 10 6 6 4 7 1 8 6 9 13 10 13 19 17 16 20 28 23 13 15 17 16 14 13 14 15 15 14 13 12 12 12 10 9 8 8 8 8 7
15 15 11 9 9 7 5 4 3 3 2 1 3 4 10 17 23 22 24 24 15 9 12 16 16 15 14 14 14 14 13 14 13 13 12 11 10 9 9 9 8 7 6
12 10 9 8 6 6 4 2 3 3 3 2 3 6 8 19 24 30 34 18 17 14 14 13 15 15 14 14 13 12 14 14 14 13 12 11 10 9 9 9 9 6 2
11 10 4 7 5 4 1 3 2 3 3 4 3 6 7 13 12 15 13 12 12 12 14 14 14 13 13 12 12 12 13 13 14 13 12 11 10 9 9 10 8 8 9
5 5 6 4 5 4 3 3 1 3 3 4 5 4 6 9 13 14 12 12 12 13 14 13 13 13 12 12 13 13 15 14 15 14 12 11 11 10 10 9 8 8 7
4 4 4 5 4 3 4 2 1 3 4 6 6 4 4 5 9 8 9 10 10 10 10 12 9 10 10 12 13 14 15 15 14 14 12 11 11 10 9 9 8 8 8
6 7 6 5 5 4 4 4 3 4 6 6 7 7 3 6 5 7 8 9 10 9 8 9 9 6 8 9 13 13 14 14 14 13 12 12 11 11 10 9 9 9 9
7 6 7 6 6 5 6 6 5 6 6 6 8 8 8 8 9 10 9 9 10 8 7 8 8 10 11 10 12 12 12 13 12 13 15 12 11 10 9 10 10 11 10
8 7 7 7 7 7 6 6 6 6 6 6 8 8 8 9 10 10 9 8 8 7 7 7 7 13 15 14 13 14 11 5 12 10 12 13 13 12 11 11 10 10 12
9 8 7 6 6 6 6 6 6 6 7 6 7 7 8 8 8 8 8 7 7 8 10 9 11 14 15 15 15 13 7 7 10 5 11 11 11 11 11 13 14 10 13
Wind_Direction
280 250 240 240 229 226 223 216 205 202 200 188 191 189 187 189 190 186 197 186 193 191 194 185 190 174 179 179 185 182 198 221 227 129 162 148 186 216 164 249 242 278 153
308 265 259 243 243 228 224 219 204 207 201 195 192 192 187 189 186 187 192 191 195 190 186 184 186 179 171 167 180 190 189 189 206 165 157 155 210 192 213 241 255 207 312
338 306 257 255 248 238 223 217 209 210 205 208 199 195 190 190 187 190 194 197 196 192 186 185 182 178 175 176 199 175 161 179 194 168 167 171 169 197 186 223 227 203 249
337 330 305 268 253 245 227 220 216 212 212 208 202 195 194 190 192 194 192 191 193 192 189 186 183 174 172 166 186 178 166 170 166 168 168 159 189 150 234 199 191 219 318
333 327 321 296 247 240 237 219 220 215 213 208 204 196 190 192 191 188 190 190 190 189 186 185 171 177 166 157 162 158 159 188 177 184 169 169 178 174 187 153 240 325 214
327 326 322 312 282 238 240 234 218 217 213 209 205 196 190 193 182 186 190 189 185 186 181 180 175 156 141 145 138 172 178 191 190 191 172 174 155 171 146 195 236 315 326
322 322 324 326 309 249 225 234 230 223 211 211 199 195 193 191 173 178 187 180 179 179 179 176 169 161 154 152 145 138 147 30 327 226 180 171 162 172 143 198 166 298 318
317 317 322 320 315 315 228 215 227 223 215 209 203 197 191 194 174 173 167 170 173 173 178 171 158 157 154 145 140 143 171 197 200 204 188 163 162 156 178 194 48 270 240
309 314 316 314 308 304 300 226 224 235 213 212 208 201 196 191 164 157 161 164 167 174 161 169 155 152 141 130 133 167 200 188 158 81 76 86 76 78 52 218 210 245 319
303 306 310 307 304 300 295 277 222 215 221 220 210 205 194 183 161 161 169 158 147 148 153 158 155 148 143 150 164 180 183 200 177 179 152 137 167 179 196 251 283 283 311
301 297 300 301 303 298 298 292 237 213 221 213 209 199 191 170 173 169 161 174 165 153 157 169 160 151 159 169 176 185 199 176 176 180 176 181 183 186 192 201 233 287 317
296 294 292 301 301 304 308 295 274 217 212 204 199 185 174 174 173 177 177 176 176 165 176 163 158 162 164 170 185 215 167 179 178 184 180 183 186 192 192 177 196 250 302
297 292 294 297 301 303 314 303 287 222 202 191 181 185 187 190 184 180 179 181 174 159 168 167 148 154 160 176 201 179 172 192 185 186 180 185 188 186 169 163 190 217 242
293 294 288 292 300 303 307 310 293 215 196 196 190 188 189 175 180 179 178 177 165 160 154 152 145 150 160 169 192 186 191 198 186 185 186 181 178 160 191 189 199 193 241
288 291 286 285 292 302 293 308 325 290 229 196 196 184 175 181 189 180 177 175 169 155 144 139 145 145 160 189 184 192 196 194 189 188 187 176 179 182 187 180 214 212 247
286 289 288 284 291 306 299 283 22 357 289 82 14 198 201 172 168 180 175 167 151 151 148 154 157 156 169 182 175 181 191 186 189 188 188 180 184 184 181 177 206 226 245
284 291 282 275 284 289 284 263 288 16 26 356 172 161 162 151 151 153 152 148 147 151 149 156 152 160 166 173 179 178 183 180 184 189 188 186 184 186 179 186 196 214 230
263 263 272 277 279 285 277 267 234 239 247 283 66 137 131 152 152 143 134 133 144 145 152 157 153 157 167 180 182 177 178 175 186 189 191 186 184 187 185 202 208 213 230
285 281 281 271 270 288 299 240 223 201 175 149 115 62 134 151 149 146 151 155 156 152 157 158 159 163 178 176 173 176 180 177 185 189 186 185 184 193 198 202 212 222 191
293 334 344 290 285 306 351 278 216 167 146 147 140 126 138 130 137 151 157 157 149 152 158 159 161 165 176 171 169 179 178 181 184 189 188 188 191 203 211 203 217 221 190
344 334 345 320 317 319 327 322 261 162 146 142 111 118 142 153 155 162 156 160 154 155 157 152 159 180 164 169 173 182 184 185 185 192 192 193 196 205 215 219 220 214 237
2 358 346 341 344 339 9 345 78 113 120 110 102 98 104 136 153 150 152 149 145 146 147 155 172 174 167 171 179 188 190 187 187 192 196 197 199 206 209 210 223 228 230
11 17 17 22 12 22 18 32 67 84 93 102 116 128 112 122 137 130 132 128 129 130 137 158 169 176 178 192 177 192 200 191 189 195 195 203 201 206 203 218 214 216 224
25 24 20 21 24 33 45 56 59 70 92 112 113 97 91 92 93 95 101 114 124 133 144 159 161 182 218 204 198 186 207 196 199 196 203 206 210 203 218 215 218 228 241
14 21 17 26 31 38 42 45 62 74 93 103 102 111 117 114 111 113 110 115 122 135 147 166 205 203 199 192 189 197 188 169 212 201 199 221 223 220 217 227 238 239 245
20 21 22 20 24 36 42 45 55 71 90 97 105 112 113 116 118 121 123 133 143 156 177 193 198 195 189 191 198 195 160 171 206 209 224 216 218 224 224 229 243 243 249